Iliamna, AK

2:09 AM AKST on January 19, 2017 (GMT -0900)
Igiugig AP, Igiugig, AK

Weather History for PAIG - July, 2013

Change the Weather History Date:

Saturday, July 6, 2013

  Actual Average (PAIL) Record (PAIL)
Temperature  
Mean Temperature 52 °F -  
Max Temperature 55 °F 61 °F 79 °F (1944)
Min Temperature 47 °F 47 °F 36 °F (1945)
Degree Days  
Heating Degree Days 14    
Growing Degree Days 2 (Base 50)    
Moisture  
Dew Point 48 °F    
Average Humidity 91    
Maximum Humidity 100    
Minimum Humidity 77    
Precipitation  
Precipitation 0.01 in - - ()
Sea Level Pressure  
Sea Level Pressure 29.77 in    
Wind  
Wind Speed 3 mph (NE)    
Max Wind Speed 13 mph    
Max Gust Speed -    
Visibility 7 miles    
Events Rain    
Averages and records for this station are not official NWS values.
T = Trace of Precipitation, MM = Missing Value Source: NWS Daily Summary

Daily Weather History Graph

Daily Weather History Graph

Search for Another Location

Airport or City:

Trip Planner

Search our weather history database for the weather conditions in past years. The results will help you decide how hot, cold, wet, or windy it might be!

Date:

Astronomy

Jul. 06, 2013 Rise Set
Actual Time 5:19 AM AKDT 11:36 PM AKDT
Civil Twilight 3:57 AM AKDT 12:57 AM AKDT
Nautical Twilight Sun does not rise Sun does not rise
Astronomical Twilight Sun does not rise Sun does not rise
Moon 4:33 AM AKDT (7/6) 10:04 PM AKDT (7/6)
Length of Visible Light 20h 59m
Length of Day
18h 16m
Waning Crescent, 2% of the Moon is Illuminated
Jul 6
Waning Crescent
Jul 7
New
Jul 15
First Quarter
Jul 22
Full
Jul 29
Last Quarter

Hourly Weather History & Observations

Time (AKDT) Temp. Dew Point Humidity Pressure Visibility Wind Dir Wind Speed Gust Speed Precip Events Conditions
12:56 AM 48.9 °F 46.9 °F 93% 29.91 in 10.0 mi Calm Calm - N/A   Overcast
1:42 AM 50.0 °F 48.2 °F 94% 29.90 in 10.0 mi Calm Calm - N/A   Overcast
1:56 AM 50.0 °F 46.9 °F 89% 29.92 in 10.0 mi Calm Calm - N/A   Overcast
2:09 AM 50.0 °F 46.4 °F 87% 29.90 in 10.0 mi East 5.8 mph - N/A   Overcast
2:56 AM 50.0 °F 45.9 °F 86% 29.91 in 10.0 mi Calm Calm - N/A   Overcast
3:22 AM 48.2 °F 46.4 °F 93% 29.89 in 10.0 mi East 4.6 mph - N/A   Overcast
3:42 AM 48.2 °F 46.4 °F 93% 29.89 in 10.0 mi Calm Calm - N/A   Overcast
3:56 AM 48.2 °F 46.4 °F 93% 29.89 in 10.0 mi East 6.9 mph - N/A   Overcast
4:56 AM 48.9 °F 45.9 °F 89% 29.89 in 10.0 mi East 4.6 mph - 0.00 in   Overcast
5:56 AM 48.9 °F 46.9 °F 93% 29.88 in 10.0 mi Calm Calm - N/A   Overcast
6:56 AM 48.9 °F 46.9 °F 93% 29.87 in 10.0 mi Calm Calm - 0.00 in   Overcast
7:56 AM 50.0 °F 47.8 °F 92% 29.86 in 10.0 mi ENE 5.8 mph - 0.00 in   Overcast
8:56 AM 50.9 °F 47.8 °F 89% 29.85 in 10.0 mi ENE 3.5 mph - 0.00 in   Overcast
9:56 AM 51.8 °F 48.2 °F 88% 29.83 in 10.0 mi ENE 5.8 mph - N/A   Overcast
10:56 AM 55.9 °F 48.9 °F 77% 29.83 in 10.0 mi ENE 11.5 mph - N/A   Overcast
11:56 AM 52.9 °F 48.9 °F 86% 29.81 in 10.0 mi NE 5.8 mph - N/A   Overcast
12:56 PM 54.0 °F 47.8 °F 80% 29.79 in 10.0 mi ENE 9.2 mph - N/A   Overcast
1:56 PM 52.9 °F 47.8 °F 83% 29.77 in 10.0 mi ENE 12.7 mph - N/A   Overcast
2:56 PM 54.9 °F 48.9 °F 80% 29.76 in 10.0 mi East 6.9 mph - 0.00 in Rain Light Rain
3:56 PM 51.8 °F 48.2 °F 88% 29.75 in 7.0 mi WSW 11.5 mph - N/A Rain Light Rain
4:16 PM 51.8 °F 50.0 °F 94% 29.75 in 6.0 mi WSW 10.4 mph - 0.00 in Rain Light Rain
4:31 PM 51.8 °F 48.2 °F 88% 29.74 in 8.0 mi West 9.2 mph - 0.00 in Rain Light Rain
4:56 PM 50.9 °F 50.0 °F 97% 29.75 in 5.0 mi WSW 8.1 mph - 0.00 in Rain Light Rain
5:10 PM 51.8 °F 48.2 °F 88% 29.73 in 5.0 mi West 5.8 mph - 0.00 in Rain Light Rain
5:32 PM 50.0 °F 48.2 °F 94% 29.73 in 2.0 mi Calm Calm - 0.00 in Rain Light Rain
5:44 PM 51.8 °F 48.2 °F 88% 29.71 in 4.0 mi West 4.6 mph - 0.00 in Rain Light Rain
5:56 PM 50.0 °F 47.8 °F 92% 29.73 in 5.0 mi West 3.5 mph - 0.01 in Rain Light Rain
6:15 PM 50.0 °F 48.2 °F 94% 29.71 in 5.0 mi Calm Calm - 0.00 in Rain Light Rain
6:23 PM 50.0 °F 48.2 °F 94% 29.71 in 1.8 mi Calm Calm - 0.00 in Rain Rain
6:29 PM 50.0 °F 48.2 °F 94% 29.71 in 1.0 mi Calm Calm - 0.00 in Rain Rain
6:37 PM 50.0 °F 48.2 °F 94% 29.71 in 1.5 mi Calm Calm - 0.00 in Rain Light Rain
6:56 PM 50.0 °F 48.2 °F 94% 29.70 in 2.0 mi Calm Calm - N/A Rain Light Rain
7:18 PM 50.0 °F 48.2 °F 94% 29.69 in 3.0 mi NNW 5.8 mph - 0.00 in Rain Light Rain
7:44 PM 50.0 °F 48.2 °F 94% 29.69 in 10.0 mi NW 4.6 mph - 0.00 in Rain Light Rain
7:56 PM 50.0 °F 48.9 °F 96% 29.70 in 5.0 mi WNW 4.6 mph - 0.00 in Rain Light Rain
8:26 PM 51.8 °F 50.0 °F 94% 29.68 in 10.0 mi NNW 3.5 mph - 0.00 in Rain Light Rain
8:56 PM 50.9 °F 50.0 °F 97% 29.69 in 10.0 mi Calm Calm - 0.00 in   Overcast
9:09 PM 51.8 °F 50.0 °F 94% 29.67 in 10.0 mi Calm Calm - N/A   Overcast
9:56 PM 50.0 °F 48.2 °F 94% 29.67 in 7.0 mi East 5.8 mph - N/A Rain Light Rain
10:44 PM 48.2 °F 48.2 °F 100% 29.66 in 2.0 mi ENE 8.1 mph - 0.00 in Rain Rain
10:56 PM 48.9 °F 47.8 °F 96% 29.68 in 1.2 mi ENE 5.8 mph - 0.00 in Rain Rain
11:04 PM 48.2 °F 48.2 °F 100% 29.66 in 2.0 mi East 6.9 mph - 0.00 in Rain Light Rain
11:56 PM 47.8 °F 46.9 °F 97% 29.66 in 5.0 mi ENE 9.2 mph - 0.00 in Rain Light Rain